Notices

What's New in latest Release from April 7th, 2021:

- Updated Glossary, including Speed of Maximum Gust, and Total Hourly Precipitation

- Updated national and regional climate services offices contacts and prices information

- Addition of station inventory lists for 1981-2010, 1971-2000, and 1961-1990 Normals.

If you haven't already, please take our survey and provide feedback about our website: https://eccc.sondage-survey.ca/f/LanguageSelection.aspx?s=442ca660-fcf1-47c0-95a9-59707d6fd709

Hourly Data Report for June 17, 2004

SHERBROOKE A
QUEBEC

45°26'00.000" N
71°41'00.000" W
241.40 m
7028124
71610
YSC

Download Data

Hourly Data (June 2004)
Hourly Data Report for June 17, 2004
TIME
LST
Temp Definition
°C
Dew Point Definition
°C
Rel Hum Definition
%
Precip. Amount Definition
mm

Wind Dir Definition
10's deg

Wind Spd Definition
km/h
Visibility Definition
km
Stn Press Definition
kPa
Hmdx Definition


Wind Chill Definition


Weather Definition


00:00 8.9 7.9 93   7 4 15.0 98.97      
01:00 9.3 8.2 93     0 15.0 98.97      
02:00 7.3 6.3 93     0 15.0 98.97      
03:00 7.3 6.4 94     0 15.0 98.96      
04:00 7.2 6.3 94   11 4 15.0 98.95      
05:00 10.1 9.1 93   9 4 15.0 98.90      
06:00 12.8 10.6 86     0 15.0 98.87      
07:00 15.6 11.9 79     0 24.1 98.86     Mainly Clear
08:00 19.4 14.4 73   31 4 24.1 98.82     Mainly Clear
09:00 22.2 14.8 63   25 11 24.1 98.77 26   Mainly Clear
10:00 23.4 15.1 60     0 24.1 98.74 27   Mainly Clear
11:00 24.2 16.3 61   26 13 24.1 98.74 29   Mainly Clear
12:00 24.4 15.3 57   23 13 24.1 98.69 29   Mostly Cloudy
13:00 25.6 16.6 58   24 11 24.1 98.66 31   Mostly Cloudy
14:00 26.6 16.8 55   25 19 24.1 98.60 32   Mostly Cloudy
15:00 26.5 16.1 53   20 13 24.1 98.55 31   Mainly Clear
16:00 25.8 16.4 56   27 9 24.1 98.51 31   Mainly Clear
17:00 26.3 15.2 50   30 11 15.0 98.52 30    
18:00 23.9 15.4 59   30 9 15.0 98.52 28    
19:00 21.8 15.8 69     0 15.0 98.51 26    
20:00 18.0 15.3 84     0 15.0 98.53      
21:00 17.1 14.8 86     0 15.0 98.56      
22:00 17.3 15.4 89   12 6 15.0 98.53      
23:00 17.0 15.2 89   7 13 12.9 98.54      

Notes on Data Quality.

Legend

  • E = Estimated
  • M = Missing
  • NA = Not Available*
  • [empty] = Indicates an unobserved value
Date modified: